Regional Weather Roundup
Issued by NWS

Home | Current Version | Previous Version | Graphics & Text | Print | Product List | Glossary On
Versions: 1 2 3 4 5 6 7 8 9 10 11 12 13 14 15 16 17 18 19 20 21 22 23 24 25 26 27 28 29 30 31 32 33 34 35 36 37 38 39 40 41 42 43 44 45 46 47 48 49 50
000
ASUS45 KBOU 130710
RWRCO

WEATHER ROUNDUP FOR COLORADO
NATIONAL WEATHER SERVICE DENVER/BOULDER CO
100 AM MDT SUN JUL 13 2014

NOTE: "FAIR" INDICATES FEW OR NO CLOUDS BELOW 12000 FEET WITH NO
SIGNIFICANT WEATHER AND/OR OBSTRUCTIONS TO VISIBILITY.

COZ001>005-013-030-031-130800-
...NORTHWEST COLORADO...

CITY           SKY/WX    TMP DP  RH WIND       PRES   REMARKS
CRAIG          PTCLDY    59  57  93 CALM      30.34R
HAYDEN         PTCLDY    61  50  67 CALM      30.37R
MEEKER         CLEAR     63  51  65 NE7       30.33R
MOUNT WERNER   NOT AVBL
STEAMBOAT SPGS PTCLDY    61  49  65 CALM      30.39R
WALDEN         PTCLDY    55  46  71 CALM      30.50S
$$

COZ006>008-011-130800-
...WEST CENTRAL VALLEYS...

CITY           SKY/WX    TMP DP  RH WIND       PRES   REMARKS
GRAND JUNCTION PTCLDY    80  50  34 SE12      30.17R
MONTROSE       CLEAR     73  51  46 E14       30.27R
EAGLE          PTCLDY    63  55  77 CALM      30.38S
RIFLE          CLEAR     70  54  56 SE8       30.25R
DELTA          CLEAR     74  53  48 N8        30.23R
NUCLA          CLEAR     68  48  49 E5        30.29S
$$

COZ017>023-064>068-130800-
...SOUTHWEST COLORADO...

CITY           SKY/WX    TMP DP  RH WIND       PRES   REMARKS
DURANGO        PTCLDY    61  52  72 N3        30.33S
CORTEZ         PTCLDY    67  51  56 CALM      30.25F
PAGOSA SPRINGS MOCLDY    64  49  58 S9        30.43R
TELLURIDE      PTCLDY    55  48  76 SE5       30.51S
WOLF CREEK PAS NOT AVBL
$$

COZ009-010-012-014-032>034-037-058>063-130800-
...CENTRAL COLORADO...

CITY           SKY/WX    TMP DP  RH WIND       PRES   REMARKS
ASPEN          PTCLDY    59  48  67 SW7       30.43S
BUENA VISTA    CLOUDY    57  54  90 W3        30.53S
COPPER MTN     PTCLDY    54  43  66 S7        30.77S
BERTHOUD PASS  CLOUDY    41  28  60 E16       30.82S HAZE
COTTONWOOD PAS CLOUDY    54  50  87 CALM      30.65S
GUNNISON       PTCLDY    57  50  77 NE6       30.49S
KREMMLING      PTCLDY    55  50  82 CALM      30.46S
LEADVILLE      MOCLDY    48  47  96 CALM      30.63S
SALIDA         MOCLDY    61  55  79 CALM      30.58R
SUNLIGHT       PTCLDY    54  50  87 NE5       30.67S
WILKERSON PASS CLOUDY    46  43  87 S8        30.76F
$$

COZ069>075-130800-
...SAN LUIS VALLEY/SANGRE DE CRISTO MOUNTAINS...

CITY           SKY/WX    TMP DP  RH WIND       PRES   REMARKS
ALAMOSA        CLOUDY    60  50  69 E5        30.45S
LA VETA PASS   RAIN      46  45  93 SE6       30.65F
SAGUACHE       NOT AVBL
$$

COZ035-036-038>040-130800-
...NORTHERN COLORADO FRONT RANGE...

CITY           SKY/WX    TMP DP  RH WIND       PRES   REMARKS
DENVER INTL AP MOCLDY    63  58  83 SW5       30.34S
DMNS CITY PARK   N/A     62  58  86 SE2       30.33F
AURORA         NOT AVBL
FRONT RANGE AP NOT AVBL
ERIE MUNI ARPT MOCLDY    61  58  90 CALM      30.33S
BOULDER MUN AP MOCLDY    63  57  82 CALM      30.34S
CENTENNIAL     MOCLDY    61  56  83 SE3       30.36F
BROOMFIELD     MOCLDY    64  55  72 CALM      30.36S
FORT COLLINS   CLEAR     64  59  82 CALM      30.34S
LONGMONT       CLEAR     64  60  90 CALM      30.35S
$$

COZ041-046-047-076>085-087-088-130800-
...PIKES PEAK/PALMER DIVIDE AND SOUTHERN FOOTHILLS...

CITY           SKY/WX    TMP DP  RH WIND       PRES   REMARKS
COLO. SPRINGS  CLOUDY    62  58  86 N3        30.40F
A. F. ACADEMY  NOT AVBL
ELLICOTT       CLOUDY    60  58  92 CALM      30.39S
FALCON         CLOUDY    58  56  90 CALM      30.44F
FORT CARSON    NOT AVBL
LIMON          CLOUDY    64  61  90 CALM      30.34F
MONUMENT HILL  CLOUDY    55  54  94 CALM      30.43F
TRINIDAD       CLOUDY    62  59  90 NW6       30.40F
$$

COZ042>045-048>051-090-091-130800-
...NORTHEAST COLORADO...

CITY           SKY/WX    TMP DP  RH WIND       PRES   REMARKS
GREELEY ARPT   NOT AVBL
AKRON          MOCLDY    66  62  87 W8        30.30S
BURLINGTON     CLOUDY    70  63  78 CALM      30.25F
WRAY             N/A     67  65  91 NW3       30.23S
STERLING       MOCLDY    68  64  88 CALM      30.25F
HOLYOKE        PTCLDY    64  61  88 W3        30.23F
FORT MORGAN    MOCLDY    64  59  84 W7        30.30F
$$

COZ086-089-092>099-130800-
...SOUTHEAST COLORADO...

CITY           SKY/WX    TMP DP  RH WIND       PRES   REMARKS
PUEBLO         CLOUDY    65  63  93 CALM      30.33S
LA JUNTA       LGT RAIN  65  63  93 W12       30.28F
LAMAR          RAIN      66  64  93 NW10      30.20F
SPRINGFIELD      N/A     66  61  84 N14       30.25S
$$



USA.gov is the U.S. government's official web portal to all federal, state and local government web resources and services.